Regional Weather Roundup
Issued by NWS

Home | Current Version | Previous Version | Graphics & Text | Print | Product List | Glossary On
Versions: 1 2 3 4 5 6 7 8 9 10 11 12 13 14 15 16 17 18 19 20 21 22 23 24 25 26 27 28 29 30 31 32 33 34 35 36 37 38 39 40 41 42 43 44 45 46 47 48 49 50
162
ASUS43 KIND 242209
RWRIN

WEATHER ROUNDUP FOR INDIANA
NATIONAL WEATHER SERVICE INDIANAPOLIS IN
600 PM EDT WED MAY 24 2017

NOTE: "FAIR" INDICATES FEW OR NO CLOUDS BELOW 12,000 FEET WITH NO
SIGNIFICANT WEATHER AND/OR OBSTRUCTIONS TO VISIBILITY.

* - STATION DOES NOT REPORT WEATHER SUCH AS PRECIPITATION OR FOG.

+ - STATION NOT QUALITY CONTROLLED BY THE NATIONAL WEATHER SERVICE.
    USE DATA WITH CAUTION...ESPECIALLY DEWPOINT AND RELATIVE
    HUMIDITY OBSERVATIONS.

INZ001>003-010>013-019-020-242300-
NORTHWEST INDIANA

CITY           SKY/WX    TMP DP  RH WIND       PRES   REMARKS
GARY /AIRPORT/ LGT RAIN  54  50  87 N14       29.57R
KNOX *+        CLOUDY    59  54  82 NW7       29.50R
LA PORTE +     LGT RAIN  57  56  95 NW13      29.50S
MICHIGAN CITY+ LGT RAIN  52  52 100 NW8       29.53R
MONTICELLO +   LGT RAIN  59  56  90 NW10      29.47F
RENSSELAER +   LGT RAIN  59  55  88 N8        29.51R
VALPARAISO     LGT RAIN  56  54  93 NW8       29.51F FOG

$$

LMZ046-743>745-242300-
SOUTHERN LAKE MICHIGAN

STATION/POSITION TIME  TEMP    WIND        PRES    WAVE
                       AIR SEA DIR/SP/G            HT
                 (UTC) (F)     (DEG/KT/KT) (MB)    (FT)
BURNS HARBOR     2140   51     300/  7/  8 1001.0R
MICHIGAN CITY    2140   53     280/  7/  8   N/A
5NW MICH CITY    2200   52 54  330/ 12/ 16   N/A     4

$$

INZ004-005-014>016-021>024-242300-
NORTH CENTRAL INDIANA

CITY           SKY/WX    TMP DP  RH WIND       PRES   REMARKS
ELKHART        LGT RAIN  59  55  88 E6        29.51R
GOSHEN         LGT RAIN  61  56  83 NE10      29.49S
LOGANSPORT +   RAIN      59  55  88 NW14G20   29.48S
PERU/GRISSOM   RAIN      61  61 100 NW10      29.46S
ROCHESTER +    LGT RAIN  61  59  94 W5        29.48F
SOUTH BEND     TSTM      59  53  80 E13G20    29.52R
WARSAW +       LGT RAIN  59  57  94 E3        29.49R

$$

INZ006>009-017-018-025>027-242300-
NORTHEAST INDIANA

CITY           SKY/WX    TMP DP  RH WIND       PRES   REMARKS
ANGOLA *+      CLOUDY    59  46  63 NE5       29.50R
AUBURN +       HVY RAIN  59  55  88 N6        29.49S
FORT WAYNE     TSTM      59  56  89 N15G22    29.46S FOG
HUNTINGTON +   HVY RAIN  58  57  96 NW3       29.47F
KENDALLVILLE + RAIN      60  58  96 NE5       29.50S

$$

INZ028-029-035-036-043>045-051>053-242300-
WEST CENTRAL INDIANA

CITY           SKY/WX    TMP DP  RH WIND       PRES   REMARKS
CRAWFORDSVL +  PTSUNNY   60  57  91 N10G16    29.46S
GREENCASTLE +  CLOUDY    59  54  82 N6        29.45F
LAFAYETTE      LGT RAIN  60  57  89 N9        29.46F
TERRE HAUTE    LGT RAIN  62  56  80 N9        29.46S

$$

INZ030>032-037>040-046>048-054>057-064-065-242300-
CENTRAL INDIANA

CITY           SKY/WX    TMP DP  RH WIND       PRES   REMARKS
CP ATTERBURY + DRIZZLE   59  55  88 N10G16    29.42F
COLUMBUS       LGT RAIN  59  57  94 N15       29.41F
FRANKFORT +    CLOUDY    63  59  86 N13       29.47F
GREENWOOD *+   CLOUDY    60  57  91 N8        29.43F
INDIANAPOLIS   LGT RAIN  60  56  86 N8        29.43F
-EAGLE CREEK   LGT RAIN  60  55  83 N9        29.44S
KOKOMO +       LGT RAIN  60  58  92 N9        29.46F
MARION +       RAIN      59  57  94 N10       29.46F
MT COMFORT *+  CLOUDY    59  57  94 NW9       29.43F
SHELBYVILLE    LGT RAIN  61  56  83 N8        29.41F
ZIONSVILLE +   LGT RAIN  58  56  94 N7        29.46S

$$

INZ033-034-041-042-049-050-058-059-242300-
EAST CENTRAL INDIANA

CITY           SKY/WX    TMP DP  RH WIND       PRES   REMARKS
MUNCIE         LGT RAIN  61  58  90 N10       29.44F FOG
RICHMOND +     RAIN      55  55 100 NW13      29.41F

$$

INZ060-061-067>069-081>083-085>088-242300-
SOUTHWEST INDIANA

CITY           SKY/WX    TMP DP  RH WIND       PRES   REMARKS
EVANSVILLE     LGT RAIN  59  54  83 W7        29.50R
HUNTINGBURG *+ LGT RAIN  57  55  94 W12       29.46R
WASHINGTON +   RAIN      58  57  94 W6        29.45S

$$

INZ062-063-066-070>080-084-089>092-242300-
SOUTH CENTRAL AND SOUTHEAST INDIANA

CITY           SKY/WX    TMP DP  RH WIND       PRES   REMARKS
BLOOMINGTON    CLOUDY    60  54  80 VRB5      29.44S
MADISON *+     CLOUDY    61  57  88 N8        29.40S
NORTH VERNON + DRIZZLE   57  57 100 N9        29.39F
SEYMOUR +      CLOUDY    61  57  88 NW9       29.40F

$$





USA.gov is the U.S. government's official web portal to all federal, state and local government web resources and services.